Time,TemperatureF,DewpointF,PressureIn,WindDirection,WindDirectionDegrees,WindSpeedMPH,WindSpeedGustMPH,Humidity,HourlyPrecipIn,Conditions,Clouds,dailyrainin,SoftwareType,DateUTC
2013-06-08 00:02:00,65.0,31.0,-100.00,SW,217,2.0,2.0,27,-99.99,,,-99.99,,2013-06-08 06:02:00,
2013-06-08 00:12:00,67.0,31.0,-100.00,SW,221,4.0,4.0,25,-99.99,,,-99.99,,2013-06-08 06:12:00,
2013-06-08 00:22:00,65.0,31.0,-100.00,SW,230,5.0,5.0,27,-99.99,,,-99.99,,2013-06-08 06:22:00,
2013-06-08 00:32:00,65.0,32.0,-100.00,WSW,255,4.0,5.0,28,-99.99,,,-99.99,,2013-06-08 06:32:00,
2013-06-08 00:42:00,66.0,31.0,-100.00,SW,235,5.0,5.0,27,-99.99,,,-99.99,,2013-06-08 06:42:00,
2013-06-08 00:52:00,65.0,31.0,-100.00,West,259,5.0,5.0,28,-99.99,,,-99.99,,2013-06-08 06:52:00,
2013-06-08 01:02:00,66.0,31.0,-100.00,SW,226,4.0,5.0,27,-99.99,,,-99.99,,2013-06-08 07:02:00,
2013-06-08 01:12:00,65.0,33.0,-100.00,WSW,258,4.0,5.0,30,-99.99,,,-99.99,,2013-06-08 07:12:00,
2013-06-08 01:21:00,66.0,31.0,-100.00,WSW,253,5.0,5.0,27,-99.99,,,-99.99,,2013-06-08 07:21:00,
2013-06-08 01:32:00,65.0,31.0,-100.00,West,274,5.0,5.0,27,-99.99,,,-99.99,,2013-06-08 07:32:00,
2013-06-08 01:42:00,67.0,31.0,-100.00,West,280,6.0,7.0,25,-99.99,,,-99.99,,2013-06-08 07:42:00,
2013-06-08 01:52:00,65.0,31.0,-100.00,WSW,252,3.0,4.0,27,-99.99,,,-99.99,,2013-06-08 07:52:00,
2013-06-08 02:02:00,65.0,31.0,-100.00,WSW,252,3.0,4.0,27,-99.99,,,-99.99,,2013-06-08 08:02:00,
2013-06-08 02:12:00,64.0,32.0,-100.00,West,271,4.0,5.0,29,-99.99,,,-99.99,,2013-06-08 08:12:00,
2013-06-08 02:22:00,66.0,29.0,-100.00,West,271,7.0,8.0,25,-99.99,,,-99.99,,2013-06-08 08:22:00,
2013-06-08 02:32:00,68.0,30.0,-100.00,WSW,252,8.0,12.0,23,-99.99,,,-99.99,,2013-06-08 08:32:00,
2013-06-08 02:42:00,71.0,31.0,-100.00,WNW,286,8.0,13.0,23,-99.99,,,-99.99,,2013-06-08 08:42:00,
2013-06-08 02:52:00,72.0,31.0,-100.00,WNW,286,7.0,13.0,22,-99.99,,,-99.99,,2013-06-08 08:52:00,
2013-06-08 03:01:00,71.0,31.0,-100.00,East,81,7.0,14.0,22,-99.99,,,-99.99,,2013-06-08 09:01:00,
2013-06-08 03:12:00,71.0,32.0,-100.00,ENE,67,4.0,13.0,24,-99.99,,,-99.99,,2013-06-08 09:12:00,
2013-06-08 03:22:00,70.0,34.0,-100.00,ESE,112,6.0,9.0,26,-99.99,,,-99.99,,2013-06-08 09:22:00,
2013-06-08 03:33:00,70.0,34.0,-100.00,ESE,112,6.0,9.0,26,-99.99,,,-99.99,,2013-06-08 09:33:00,
2013-06-08 03:42:00,70.0,35.0,-100.00,NE,37,3.0,5.0,26,-99.99,,,-99.99,,2013-06-08 09:42:00,
2013-06-08 03:52:00,70.0,35.0,-100.00,ESE,122,4.0,7.0,27,-99.99,,,-99.99,,2013-06-08 09:52:00,
2013-06-08 04:02:00,70.0,35.0,-100.00,WNW,298,10.0,15.0,27,-99.99,,,-99.99,,2013-06-08 10:02:00,
2013-06-08 04:12:00,70.0,35.0,-100.00,West,259,3.0,10.0,27,-99.99,,,-99.99,,2013-06-08 10:12:00,
2013-06-08 04:22:00,70.0,35.0,-100.00,West,276,4.0,10.0,28,-99.99,,,-99.99,,2013-06-08 10:22:00,
2013-06-08 04:33:00,69.0,36.0,-100.00,West,272,6.0,9.0,29,-99.99,,,-99.99,,2013-06-08 10:33:00,
2013-06-08 04:42:00,69.0,36.0,-100.00,NNW,327,4.0,10.0,29,-99.99,,,-99.99,,2013-06-08 10:42:00,
2013-06-08 04:52:00,68.0,35.0,-100.00,North,352,6.0,9.0,29,-99.99,,,-99.99,,2013-06-08 10:52:00,
2013-06-08 05:02:00,68.0,35.0,-100.00,West,270,7.0,12.0,29,-99.99,,,-99.99,,2013-06-08 11:02:00,
2013-06-08 05:12:00,68.0,35.0,-100.00,West,274,5.0,18.0,29,-99.99,,,-99.99,,2013-06-08 11:12:00,
2013-06-08 05:22:00,67.0,35.0,-100.00,NW,311,6.0,11.0,30,-99.99,,,-99.99,,2013-06-08 11:22:00,
2013-06-08 05:32:00,67.0,35.0,-100.00,West,261,9.0,16.0,30,-99.99,,,-99.99,,2013-06-08 11:32:00,
2013-06-08 05:42:00,67.0,34.0,-100.00,WNW,297,7.0,14.0,29,-99.99,,,-99.99,,2013-06-08 11:42:00,
2013-06-08 05:52:00,67.0,34.0,-100.00,West,267,11.0,13.0,30,-99.99,,,-99.99,,2013-06-08 11:52:00,
2013-06-08 06:02:00,66.0,34.0,-100.00,WNW,286,6.0,10.0,30,-99.99,,,-99.99,,2013-06-08 12:02:00,
2013-06-08 06:12:00,66.0,34.0,-100.00,West,259,11.0,14.0,31,-99.99,,,-99.99,,2013-06-08 12:12:00,
2013-06-08 06:21:00,65.0,35.0,-100.00,WNW,284,6.0,11.0,31,-99.99,,,-99.99,,2013-06-08 12:21:00,
2013-06-08 06:32:00,65.0,35.0,-100.00,WNW,284,6.0,11.0,31,-99.99,,,-99.99,,2013-06-08 12:32:00,
2013-06-08 06:42:00,65.0,35.0,-100.00,West,272,16.0,29.0,32,-99.99,,,-99.99,,2013-06-08 12:42:00,
2013-06-08 06:52:00,65.0,35.0,-100.00,West,275,13.0,22.0,33,-99.99,,,-99.99,,2013-06-08 12:52:00,
2013-06-08 07:02:00,65.0,35.0,-100.00,WNW,291,9.0,24.0,33,-99.99,,,-99.99,,2013-06-08 13:02:00,
2013-06-08 07:12:00,65.0,35.0,-100.00,West,280,10.0,12.0,33,-99.99,,,-99.99,,2013-06-08 13:12:00,
2013-06-08 07:22:00,66.0,36.0,-100.00,WSW,255,6.0,12.0,32,-99.99,,,-99.99,,2013-06-08 13:22:00,
2013-06-08 07:32:00,66.0,36.0,-100.00,WSW,255,6.0,12.0,32,-99.99,,,-99.99,,2013-06-08 13:32:00,
2013-06-08 07:42:00,65.0,36.0,-100.00,West,276,6.0,13.0,33,-99.99,,,-99.99,,2013-06-08 13:42:00,
2013-06-08 07:52:00,66.0,36.0,-100.00,West,261,9.0,13.0,33,-99.99,,,-99.99,,2013-06-08 13:52:00,
2013-06-08 08:02:00,66.0,36.0,-100.00,WNW,302,8.0,13.0,33,-99.99,,,-99.99,,2013-06-08 14:02:00,
2013-06-08 08:12:00,66.0,36.0,-100.00,ENE,75,4.0,9.0,32,-99.99,,,-99.99,,2013-06-08 14:12:00,
2013-06-08 08:21:00,67.0,36.0,-100.00,ESE,117,3.0,8.0,32,-99.99,,,-99.99,,2013-06-08 14:21:00,
2013-06-08 08:32:00,66.0,36.0,-100.00,WSW,246,4.0,6.0,32,-99.99,,,-99.99,,2013-06-08 14:32:00,
2013-06-08 08:42:00,67.0,36.0,-100.00,South,182,5.0,8.0,32,-99.99,,,-99.99,,2013-06-08 14:42:00,
2013-06-08 08:52:00,67.0,36.0,-100.00,NE,40,9.0,15.0,31,-99.99,,,-99.99,,2013-06-08 14:52:00,
2013-06-08 09:02:00,66.0,37.0,-100.00,North,10,8.0,13.0,33,-99.99,,,-99.99,,2013-06-08 15:02:00,
2013-06-08 09:12:00,67.0,37.0,-100.00,NW,315,5.0,9.0,32,-99.99,,,-99.99,,2013-06-08 15:12:00,
2013-06-08 09:21:00,66.0,36.0,-100.00,North,8,5.0,15.0,32,-99.99,,,-99.99,,2013-06-08 15:21:00,
2013-06-08 09:32:00,66.0,36.0,-100.00,NNW,335,9.0,14.0,32,-99.99,,,-99.99,,2013-06-08 15:32:00,
2013-06-08 09:42:00,67.0,37.0,-100.00,WNW,301,1.0,6.0,32,-99.99,,,-99.99,,2013-06-08 15:42:00,
2013-06-08 09:53:00,67.0,36.0,-100.00,WSW,238,5.0,7.0,31,-99.99,,,-99.99,,2013-06-08 15:53:00,
2013-06-08 10:02:00,67.0,37.0,-100.00,ENE,69,5.0,10.0,32,-99.99,,,-99.99,,2013-06-08 16:02:00,
2013-06-08 10:12:00,68.0,37.0,-100.00,North,9,7.0,8.0,32,-99.99,,,-99.99,,2013-06-08 16:12:00,
2013-06-08 10:22:00,68.0,37.0,-100.00,East,79,3.0,9.0,31,-99.99,,,-99.99,,2013-06-08 16:22:00,
2013-06-08 10:32:00,68.0,36.0,-100.00,West,281,7.0,11.0,30,-99.99,,,-99.99,,2013-06-08 16:32:00,
2013-06-08 10:42:00,69.0,36.0,-100.00,ENE,57,10.0,11.0,29,-99.99,,,-99.99,,2013-06-08 16:42:00,
2013-06-08 10:53:00,69.0,36.0,-100.00,ENE,65,1.0,11.0,29,-99.99,,,-99.99,,2013-06-08 16:53:00,
2013-06-08 11:02:00,69.0,36.0,-100.00,NE,53,8.0,11.0,30,-99.99,,,-99.99,,2013-06-08 17:02:00,
2013-06-08 11:12:00,70.0,37.0,-100.00,ENE,62,6.0,9.0,29,-99.99,,,-99.99,,2013-06-08 17:12:00,
2013-06-08 11:22:00,70.0,38.0,-100.00,ESE,102,10.0,15.0,31,-99.99,,,-99.99,,2013-06-08 17:22:00,
2013-06-08 11:32:00,70.0,38.0,-100.00,ESE,102,10.0,15.0,31,-99.99,,,-99.99,,2013-06-08 17:32:00,
2013-06-08 11:42:00,71.0,38.0,-100.00,SE,136,6.0,12.0,29,-99.99,,,-99.99,,2013-06-08 17:42:00,
2013-06-08 11:52:00,71.0,37.0,-100.00,NNE,27,6.0,9.0,28,-99.99,,,-99.99,,2013-06-08 17:52:00,
2013-06-08 12:02:00,71.0,37.0,-100.00,NNW,338,6.0,7.0,28,-99.99,,,-99.99,,2013-06-08 18:02:00,
2013-06-08 12:12:00,72.0,36.0,-100.00,East,94,6.0,10.0,26,-99.99,,,-99.99,,2013-06-08 18:12:00,
2013-06-08 12:22:00,72.0,36.0,-100.00,East,86,7.0,13.0,26,-99.99,,,-99.99,,2013-06-08 18:22:00,
2013-06-08 12:32:00,73.0,36.0,-100.00,SSW,205,2.0,7.0,26,-99.99,,,-99.99,,2013-06-08 18:32:00,
2013-06-08 12:41:00,75.0,35.0,-100.00,WSW,256,2.0,5.0,23,-99.99,,,-99.99,,2013-06-08 18:41:00,
2013-06-08 12:50:00,74.0,37.0,-100.00,ENE,68,10.0,11.0,25,-99.99,,,-99.99,,2013-06-08 18:50:00,
2013-06-08 12:52:00,75.0,35.0,-100.00,WSW,256,2.0,5.0,23,-99.99,,,-99.99,,2013-06-08 18:52:00,
2013-06-08 13:02:00,74.0,35.0,-100.00,SE,126,8.0,11.0,24,-99.99,,,-99.99,,2013-06-08 19:02:00,
2013-06-08 13:12:00,74.0,37.0,-100.00,ENE,68,10.0,11.0,25,-99.99,,,-99.99,,2013-06-08 19:12:00,
2013-06-08 13:22:00,74.0,37.0,-100.00,ENE,68,10.0,11.0,25,-99.99,,,-99.99,,2013-06-08 19:22:00,
2013-06-08 13:32:00,74.0,37.0,-100.00,ENE,68,10.0,11.0,25,-99.99,,,-99.99,,2013-06-08 19:32:00,
2013-06-08 13:42:00,74.0,37.0,-100.00,ENE,68,10.0,11.0,25,-99.99,,,-99.99,,2013-06-08 19:42:00,
2013-06-08 14:22:00,76.0,25.0,-100.00,NW,326,8.0,14.0,14,-99.99,,,-99.99,,2013-06-08 20:22:00,
2013-06-08 14:32:00,76.0,25.0,-100.00,NE,46,6.0,12.0,15,-99.99,,,-99.99,,2013-06-08 20:32:00,
2013-06-08 14:42:00,77.0,26.0,-100.00,North,1,13.0,16.0,14,-99.99,,,-99.99,,2013-06-08 20:42:00,
2013-06-08 14:52:00,77.0,26.0,-100.00,NNE,13,5.0,16.0,14,-99.99,,,-99.99,,2013-06-08 20:52:00,
2013-06-08 15:02:00,78.0,24.0,-100.00,WNW,299,9.0,15.0,13,-99.99,,,-99.99,,2013-06-08 21:02:00,
2013-06-08 15:11:00,78.0,24.0,-100.00,WNW,299,9.0,15.0,13,-99.99,,,-99.99,,2013-06-08 21:11:00,
2013-06-08 15:22:00,78.0,26.0,-100.00,NE,37,13.0,23.0,14,-99.99,,,-99.99,,2013-06-08 21:22:00,
2013-06-08 15:33:00,78.0,26.0,-100.00,NW,312,8.0,15.0,14,-99.99,,,-99.99,,2013-06-08 21:33:00,
2013-06-08 15:43:00,78.0,26.0,-100.00,NW,319,5.0,12.0,14,-99.99,,,-99.99,,2013-06-08 21:43:00,
2013-06-08 15:52:00,78.0,24.0,-100.00,NE,37,12.0,16.0,13,-99.99,,,-99.99,,2013-06-08 21:52:00,
2013-06-08 16:02:00,78.0,23.0,-100.00,NNW,337,10.0,20.0,13,-99.99,,,-99.99,,2013-06-08 22:02:00,
2013-06-08 16:12:00,78.0,23.0,-100.00,NNW,337,10.0,20.0,13,-99.99,,,-99.99,,2013-06-08 22:12:00,
2013-06-08 16:22:00,78.0,25.0,-100.00,NNW,340,6.0,14.0,13,-99.99,,,-99.99,,2013-06-08 22:22:00,
2013-06-08 16:33:00,79.0,27.0,-100.00,NE,39,5.0,11.0,14,-99.99,,,-99.99,,2013-06-08 22:33:00,
2013-06-08 16:42:00,79.0,24.0,-100.00,NW,321,6.0,11.0,13,-99.99,,,-99.99,,2013-06-08 22:42:00,
2013-06-08 16:52:00,79.0,23.0,-100.00,NW,311,9.0,11.0,12,-99.99,,,-99.99,,2013-06-08 22:52:00,
2013-06-08 17:02:00,78.0,26.0,-100.00,NW,307,9.0,13.0,14,-99.99,,,-99.99,,2013-06-08 23:02:00,
2013-06-08 17:12:00,78.0,24.0,-100.00,NNE,16,11.0,18.0,13,-99.99,,,-99.99,,2013-06-08 23:12:00,
2013-06-08 17:22:00,78.0,27.0,-100.00,NE,53,12.0,17.0,15,-99.99,,,-99.99,,2013-06-08 23:22:00,
2013-06-08 17:32:00,77.0,32.0,-100.00,East,84,9.0,13.0,19,-99.99,,,-99.99,,2013-06-08 23:32:00,
2013-06-08 17:42:00,77.0,32.0,-100.00,East,98,6.0,14.0,19,-99.99,,,-99.99,,2013-06-08 23:42:00,
2013-06-08 17:52:00,77.0,32.0,-100.00,East,98,6.0,14.0,19,-99.99,,,-99.99,,2013-06-08 23:52:00,
2013-06-08 18:02:00,77.0,29.0,-100.00,ESE,107,7.0,11.0,17,-99.99,,,-99.99,,2013-06-09 00:02:00,
2013-06-08 18:12:00,77.0,31.0,-100.00,East,95,12.0,15.0,18,-99.99,,,-99.99,,2013-06-09 00:12:00,
2013-06-08 18:21:00,77.0,30.0,-100.00,East,86,8.0,13.0,17,-99.99,,,-99.99,,2013-06-09 00:21:00,
2013-06-08 18:32:00,77.0,31.0,-100.00,ENE,78,8.0,11.0,18,-99.99,,,-99.99,,2013-06-09 00:32:00,
2013-06-08 18:42:00,77.0,31.0,-100.00,ENE,78,8.0,11.0,18,-99.99,,,-99.99,,2013-06-09 00:42:00,
2013-06-08 18:51:00,76.0,26.0,-100.00,SE,142,8.0,12.0,15,-99.99,,,-99.99,,2013-06-09 00:51:00,
2013-06-08 19:02:00,76.0,29.0,-100.00,ENE,67,9.0,11.0,17,-99.99,,,-99.99,,2013-06-09 01:02:00,
2013-06-08 19:12:00,76.0,25.0,-100.00,ESE,109,5.0,9.0,15,-99.99,,,-99.99,,2013-06-09 01:12:00,
2013-06-08 19:22:00,76.0,26.0,-100.00,ESE,102,8.0,11.0,15,-99.99,,,-99.99,,2013-06-09 01:22:00,
2013-06-08 19:32:00,76.0,28.0,-100.00,ESE,123,6.0,8.0,17,-99.99,,,-99.99,,2013-06-09 01:32:00,
2013-06-08 19:41:00,76.0,25.0,-100.00,East,101,5.0,6.0,15,-99.99,,,-99.99,,2013-06-09 01:41:00,
2013-06-08 19:52:00,75.0,25.0,-100.00,ESE,103,5.0,8.0,15,-99.99,,,-99.99,,2013-06-09 01:52:00,
2013-06-08 20:02:00,75.0,28.0,-100.00,East,99,7.0,9.0,17,-99.99,,,-99.99,,2013-06-09 02:02:00,
2013-06-08 20:12:00,74.0,28.0,-100.00,ESE,110,6.0,7.0,18,-99.99,,,-99.99,,2013-06-09 02:12:00,
2013-06-08 20:21:00,73.0,28.0,-100.00,SE,128,7.0,8.0,18,-99.99,,,-99.99,,2013-06-09 02:21:00,
2013-06-08 20:32:00,73.0,28.0,-100.00,ESE,113,6.0,7.0,19,-99.99,,,-99.99,,2013-06-09 02:32:00,
2013-06-08 20:42:00,71.0,28.0,-100.00,ENE,61,3.0,4.0,20,-99.99,,,-99.99,,2013-06-09 02:42:00,
2013-06-08 20:52:00,69.0,28.0,-100.00,East,85,3.0,4.0,22,-99.99,,,-99.99,,2013-06-09 02:52:00,
2013-06-08 21:02:00,68.0,28.0,-100.00,ESE,105,3.0,4.0,22,-99.99,,,-99.99,,2013-06-09 03:02:00,
2013-06-08 21:12:00,67.0,29.0,-100.00,ESE,104,3.0,4.0,24,-99.99,,,-99.99,,2013-06-09 03:12:00,
2013-06-08 21:21:00,66.0,29.0,-100.00,ENE,62,1.0,6.0,24,-99.99,,,-99.99,,2013-06-09 03:21:00,
2013-06-08 21:32:00,66.0,29.0,-100.00,ENE,62,1.0,6.0,24,-99.99,,,-99.99,,2013-06-09 03:32:00,
2013-06-08 21:43:00,67.0,29.0,-100.00,SSE,166,1.0,3.0,24,-99.99,,,-99.99,,2013-06-09 03:43:00,
2013-06-08 21:53:00,66.0,29.0,-100.00,North,0,0.0,0.0,25,-99.99,,,-99.99,,2013-06-09 03:53:00,
2013-06-08 22:02:00,65.0,27.0,-100.00,West,276,0.0,1.0,23,-99.99,,,-99.99,,2013-06-09 04:02:00,
2013-06-08 22:12:00,65.0,27.0,-100.00,West,276,0.0,1.0,23,-99.99,,,-99.99,,2013-06-09 04:12:00,
2013-06-08 22:22:00,64.0,27.0,-100.00,ESE,119,0.0,2.0,24,-99.99,,,-99.99,,2013-06-09 04:22:00,
2013-06-08 22:32:00,64.0,28.0,-100.00,SSE,156,1.0,2.0,24,-99.99,,,-99.99,,2013-06-09 04:32:00,
2013-06-08 22:42:00,64.0,27.0,-100.00,SSE,147,1.0,3.0,24,-99.99,,,-99.99,,2013-06-09 04:42:00,
2013-06-08 22:52:00,62.0,27.0,-100.00,WNW,285,2.0,3.0,25,-99.99,,,-99.99,,2013-06-09 04:52:00,
2013-06-08 23:02:00,63.0,27.0,-100.00,SW,229,1.0,2.0,25,-99.99,,,-99.99,,2013-06-09 05:02:00,
2013-06-08 23:12:00,63.0,26.0,-100.00,West,264,1.0,2.0,24,-99.99,,,-99.99,,2013-06-09 05:12:00,
2013-06-08 23:21:00,63.0,26.0,-100.00,West,264,1.0,2.0,24,-99.99,,,-99.99,,2013-06-09 05:21:00,
2013-06-08 23:32:00,63.0,26.0,-100.00,SW,229,1.0,2.0,24,-99.99,,,-99.99,,2013-06-09 05:32:00,
2013-06-08 23:42:00,62.0,26.0,-100.00,SW,225,2.0,3.0,25,-99.99,,,-99.99,,2013-06-09 05:42:00,
2013-06-08 23:52:00,61.0,26.0,-100.00,WSW,252,2.0,3.0,25,-99.99,,,-99.99,,2013-06-09 05:52:00,